Change the Weather History Date:

Wednesday, August 13, 2014

  Actual Average Record
Temperature  
Mean Temperature 84 °F -  
Max Temperature 89 °F - - ()
Min Temperature 80 °F - - ()
Cooling Degree Days 20    
Growing Degree Days 34 (Base 50)    
Moisture  
Dew Point 77 °F    
Average Humidity 75    
Maximum Humidity 89    
Minimum Humidity 62    
Precipitation  
Precipitation 0.00 in - - ()
Sea Level Pressure  
Sea Level Pressure 30.00 in    
Wind  
Wind Speed 7 mph (West)    
Max Wind Speed 15 mph    
Max Gust Speed -    
Visibility 10 miles    
Events      
T = Trace of Precipitation, MM = Missing Value Source: NWS Daily Summary

Daily Weather History Graph

Daily Weather History Graph

Search for Another Location

Airport or City:

Trip Planner

Search our weather history database for the weather conditions in past years. The results will help you decide how hot, cold, wet, or windy it might be!

Date:

Astronomy

Aug. 13, 2014 Rise Set
Actual Time 6:48 AM CDT 8:00 PM CDT
Civil Twilight 6:23 AM CDT 8:25 PM CDT
Nautical Twilight 5:53 AM CDT 8:55 PM CDT
Astronomical Twilight 5:23 AM CDT 9:25 PM CDT
Moon 10:10 PM CDT (8/13) 9:56 AM CDT (8/13)
Length of Visible Light 14h 02m
Length of Day
13h 12m
Waning Gibbous, 87% of the Moon is Illuminated
Aug 13
Waning Gibbous
Aug 17
Last Quarter
Aug 25
New
Sep 2
First Quarter
Sep 8
Full

Hourly Weather History & Observations

Time (CDT) Temp. Heat Index Dew Point Humidity Pressure Visibility Wind Dir Wind Speed Gust Speed Precip Events Conditions
12:35 AM 86.0 °F 99.3 °F 78.8 °F 79% 29.99 in 10.0 mi Calm Calm - N/A   Unknown
12:55 AM 86.0 °F 99.3 °F 78.8 °F 79% 29.99 in 10.0 mi Calm Calm - N/A   Scattered Clouds
1:15 AM 86.0 °F 99.3 °F 78.8 °F 79% 29.99 in 10.0 mi SW 10.4 mph - N/A   Mostly Cloudy
1:35 AM 86.0 °F 99.3 °F 78.8 °F 79% 29.99 in 10.0 mi WSW 11.5 mph - N/A   Overcast
1:55 AM 86.0 °F 99.3 °F 78.8 °F 79% 29.99 in 10.0 mi WSW 10.4 mph - N/A   Overcast
2:15 AM 86.0 °F 99.3 °F 78.8 °F 79% 29.98 in 10.0 mi WSW 11.5 mph - N/A   Mostly Cloudy
2:35 AM 86.0 °F 96.9 °F 77.0 °F 74% 29.98 in 10.0 mi SW 9.2 mph - N/A   Overcast
2:55 AM 86.0 °F 96.9 °F 77.0 °F 74% 29.98 in 10.0 mi SW 9.2 mph - N/A   Overcast
3:15 AM 86.0 °F 99.3 °F 78.8 °F 79% 29.98 in 10.0 mi WSW 11.5 mph - N/A   Overcast
3:35 AM 86.0 °F 99.3 °F 78.8 °F 79% 29.99 in - WSW 12.7 mph - N/A   Overcast
3:55 AM 86.0 °F 99.3 °F 78.8 °F 79% 29.99 in 10.0 mi WSW 15.0 mph - N/A   Overcast
4:15 AM 86.0 °F 99.3 °F 78.8 °F 79% 29.98 in 10.0 mi WSW 11.5 mph - N/A   Mostly Cloudy
4:35 AM 86.0 °F 99.3 °F 78.8 °F 79% 29.98 in 10.0 mi WSW 13.8 mph - N/A   Scattered Clouds
4:55 AM 86.0 °F 99.3 °F 78.8 °F 79% 29.98 in 10.0 mi West 12.7 mph - N/A   Scattered Clouds
5:15 AM 86.0 °F 99.3 °F 78.8 °F 79% 29.98 in 10.0 mi West 12.7 mph - N/A   Mostly Cloudy
5:35 AM 86.0 °F 96.9 °F 77.0 °F 74% 29.99 in 10.0 mi West 12.7 mph - N/A   Scattered Clouds
5:55 AM 86.0 °F 99.3 °F 78.8 °F 79% 29.99 in 10.0 mi West 12.7 mph - N/A   Partly Cloudy
6:15 AM 86.0 °F 99.3 °F 78.8 °F 79% 29.99 in 10.0 mi West 12.7 mph - N/A   Scattered Clouds
6:35 AM 86.0 °F 99.3 °F 78.8 °F 79% 29.99 in 10.0 mi WNW 12.7 mph - N/A   Mostly Cloudy
6:55 AM 84.2 °F 96.1 °F 78.8 °F 84% 30.00 in 6.0 mi West 13.8 mph - N/A   Haze
7:35 AM 84.2 °F 96.1 °F 78.8 °F 84% 30.01 in 6.0 mi WNW 12.7 mph - N/A   Haze
7:55 AM 84.2 °F 96.1 °F 78.8 °F 84% 30.01 in 9.0 mi West 12.7 mph - N/A   Clear
8:15 AM 86.0 °F 99.3 °F 78.8 °F 79% 30.02 in 10.0 mi West 10.4 mph - N/A   Clear
8:35 AM 86.0 °F 96.9 °F 77.0 °F 74% 30.02 in 10.0 mi West 12.7 mph - N/A   Clear
8:55 AM 86.0 °F 96.9 °F 77.0 °F 74% 30.02 in 10.0 mi West 12.7 mph - N/A   Clear
9:35 AM 87.8 °F 99.7 °F 77.0 °F 70% 30.03 in 10.0 mi WNW 10.4 mph - N/A   Clear
10:15 AM 86.0 °F 96.9 °F 77.0 °F 74% 30.03 in 10.0 mi NW 8.1 mph - N/A   Clear
10:35 AM 87.8 °F 99.7 °F 77.0 °F 70% 30.04 in 10.0 mi NW 5.8 mph - N/A   Clear
10:55 AM 87.8 °F 99.7 °F 77.0 °F 70% 30.05 in 10.0 mi NW 4.6 mph - N/A   Clear
11:15 AM 87.8 °F 99.7 °F 77.0 °F 70% 30.05 in 10.0 mi NW 5.8 mph - N/A   Clear
11:35 AM 87.8 °F 99.7 °F 77.0 °F 70% 30.04 in 10.0 mi Calm Calm - N/A   Clear
11:55 AM 87.8 °F 99.7 °F 77.0 °F 70% 30.04 in 10.0 mi NW 4.6 mph - N/A   Clear
12:15 PM 87.8 °F 99.7 °F 77.0 °F 70% 30.03 in 10.0 mi Calm Calm - N/A   Clear
12:35 PM 87.8 °F 99.7 °F 77.0 °F 70% 30.03 in 10.0 mi Calm Calm - N/A   Clear
12:55 PM 87.8 °F 99.7 °F 77.0 °F 70% 30.03 in 10.0 mi Variable 3.5 mph - N/A   Partly Cloudy
1:15 PM 89.6 °F 102.2 °F 77.0 °F 66% 30.02 in 10.0 mi Calm Calm - N/A   Scattered Clouds
1:35 PM 89.6 °F 99.8 °F 75.2 °F 62% 30.02 in 10.0 mi Calm Calm - N/A   Partly Cloudy
1:55 PM 87.8 °F 99.7 °F 77.0 °F 70% 30.02 in 10.0 mi Calm Calm - N/A   Clear
2:15 PM 87.8 °F 99.7 °F 77.0 °F 70% 30.01 in 10.0 mi Calm Calm - N/A   Clear
2:35 PM 86.0 °F 96.9 °F 77.0 °F 74% 30.00 in 10.0 mi Calm Calm - N/A   Clear
2:55 PM 86.0 °F 96.9 °F 77.0 °F 74% 30.01 in 10.0 mi Calm Calm - N/A   Clear
3:15 PM 86.0 °F 96.9 °F 77.0 °F 74% 30.00 in 10.0 mi Calm Calm - N/A   Clear
3:35 PM 86.0 °F 96.9 °F 77.0 °F 74% 29.99 in 10.0 mi Calm Calm - N/A   Clear
3:55 PM 86.0 °F 96.9 °F 77.0 °F 74% 29.98 in 10.0 mi Calm Calm - N/A   Clear
4:15 PM 86.0 °F 96.9 °F 77.0 °F 74% 29.97 in 10.0 mi Calm Calm - N/A   Clear
4:35 PM 86.0 °F 96.9 °F 77.0 °F 74% 29.97 in 10.0 mi South 4.6 mph - N/A   Clear
4:55 PM 87.8 °F 99.7 °F 77.0 °F 70% 29.97 in 9.0 mi Calm Calm - N/A   Partly Cloudy
5:15 PM 87.8 °F 99.7 °F 77.0 °F 70% 29.97 in 10.0 mi Calm Calm - N/A   Mostly Cloudy
5:35 PM 86.0 °F 95.1 °F 75.2 °F 70% 29.97 in 10.0 mi NW 12.7 mph - N/A   Mostly Cloudy
5:55 PM 86.0 °F 93.4 °F 73.4 °F 66% 29.96 in 10.0 mi Calm Calm - N/A   Scattered Clouds
6:15 PM 86.0 °F 95.1 °F 75.2 °F 70% 29.97 in 10.0 mi Calm Calm - N/A   Partly Cloudy
6:35 PM 86.0 °F 95.1 °F 75.2 °F 70% 29.96 in 10.0 mi Calm Calm - N/A   Clear
11:15 PM 80.6 °F 87.1 °F 77.0 °F 89% 30.02 in 5.0 mi North 15.0 mph - N/A   Overcast
11:55 PM 84.2 °F 92.3 °F 75.2 °F 74% 30.01 in 10.0 mi Calm Calm - N/A   Overcast